Regional Weather Roundup
Issued by NWS

Home | Current Version | Previous Version | Graphics & Text | Print | Product List | Glossary On
Versions: 1 2 3 4 5 6 7 8 9 10 11 12 13 14 15 16 17 18 19 20 21 22 23 24 25 26 27 28 29 30 31 32 33 34 35 36 37 38 39 40 41 42 43 44 45 46 47 48 49 50
800
ASUS43 KOAX 251602
RWRNE

WEATHER ROUNDUP FOR NEBRASKA
NATIONAL WEATHER SERVICE OMAHA NE
1000 AM CST SUN FEB 25 2018

NOTES: SATELLITE DATA IS BEING USED TO AUGMENT CLOUD COVER ABOVE
       12000 FEET.
       "FAIR" INDICATES FEW OR NO CLOUDS BELOW 12,000 FEET WITH NO
       SIGNIFICANT WEATHER AND/OR OBSTRUCTIONS TO VISIBILITY.


NEZ001>004-019>022-054>056-251700-
NEBRASKA PANHANDLE

CITY           SKY/WX    TMP DP  RH WIND       PRES   REMARKS
SCOTTSBLUFF    SUNNY     30  13  49 W22G30    29.87R WCI  17
ALLIANCE       MOSUNNY   24  15  68 W15       29.83S WCI  11
CHADRON        SUNNY     17   8  67 SW8       29.86R WCI   7
GORDON         FAIR      22  10  60 W10       29.81R WCI  11
KIMBALL        SUNNY     24  10  55 W15       29.87S WCI  11
SIDNEY         SUNNY     31   8  38 W15       29.89R WCI  20
$$

NEZ057>060-069>072-079>082-251700-
SOUTHWEST NEBRASKA

CITY           SKY/WX    TMP DP  RH WIND       PRES   REMARKS
NORTH PLATTE   SUNNY     24  14  65 W6        29.94R WCI  17
IMPERIAL       SUNNY     31  16  54 W10       29.94R WCI  22
LEXINGTON      SUNNY     34  19  55 W9        29.94F WCI  26
MCCOOK         MOSUNNY   34  20  56 SW13      29.97R WCI  25
OGALLALA       SUNNY     30  17  59 W12       29.91R WCI  20
$$

NEZ005>010-023>029-035>040-094-251700-
NORTH CENTRAL NEBRASKA

CITY           SKY/WX    TMP DP  RH WIND       PRES   REMARKS
VALENTINE      SUNNY     21  10  62 SW10      29.85R WCI  10
AINSWORTH      MOSUNNY   24  14  66 W9        29.87S WCI  14
BROKEN BOW     SUNNY     27  14  58 W12       29.91R WCI  17
O`NEILL        SUNNY     25  14  62 SW10      29.90R WCI  15
ORD            SUNNY     28  15  58 W10       29.92R WCI  19
THEDFORD       MOSUNNY   30  17  58 W13       29.89R WCI  20
$$

NEZ041-046>049-061>064-073>077-083>087-251700-
SOUTH CENTRAL NEBRASKA

CITY           SKY/WX    TMP DP  RH WIND       PRES   REMARKS
AURORA         SUNNY     31  22  67 W9        29.95S WCI  23
HASTINGS       SUNNY     34  19  54 W12       29.96R WCI  25
HEBRON         SUNNY     36  26  65 W7        30.00R WCI  31
HOLDREGE       SUNNY     35  21  56 W14G21    29.97R WCI  26
KEARNEY        SUNNY     33  16  49 W10       29.97R WCI  25
YORK           SUNNY     30  23  74 W10       29.96R WCI  21
$$

NEZ011>018-030>034-042>045-251700-
NORTHEAST NEBRASKA

CITY           SKY/WX    TMP DP  RH WIND       PRES   REMARKS
NORFOLK        SUNNY     27  14  58 W9        29.90R WCI  18
ALBION         SUNNY     27  15  60 W6        29.93R WCI  21
BLAIR          SUNNY     28  19  67 W10       29.94R WCI  19
COLUMBUS       SUNNY     29  17  61 W13       29.95R WCI  19
FREMONT        SUNNY     29  20  68 NW12      29.96R WCI  19
TEKAMAH        SUNNY     25  16  68 SW10      29.94S WCI  15
WAYNE          SUNNY     27  12  54 W13       29.91R WCI  16
$$

NEZ050>053-065>068-078-088>093-251700-
SOUTHEAST NEBRASKA

CITY           SKY/WX    TMP DP  RH WIND       PRES   REMARKS
LINCOLN        SUNNY     31  23  72 W8        29.99R WCI  23
OMAHA EPPLEY   PTSUNNY   33  20  58 W7        29.95R WCI  27
BEATRICE       SUNNY     33  25  72 W10       30.00R WCI  25
FALLS CITY     SUNNY     36  26  67 SW9       30.02R WCI  29
NEBRASKA CITY  SUNNY     32  28  84 SW12      29.98R WCI  23
PLATTSMOUTH    SUNNY     29  22  74 W7        29.96R WCI  22
$$

NEZ044-045-051>053-067-251700-
OMAHA AREA

CITY           SKY/WX    TMP DP  RH WIND       PRES   REMARKS
OMAHA EPPLEY   PTSUNNY   33  20  58 W7        29.95R WCI  27
BLAIR          SUNNY     28  19  67 W10       29.94R WCI  19
FREMONT        SUNNY     29  20  68 NW12      29.96R WCI  19
MILLARD        MOSUNNY   32  21  63 W7        29.96S WCI  26
OFFUTT AFB     SUNNY     31  22  69 W9        29.95R WCI  23
PLATTSMOUTH    SUNNY     29  22  74 W7        29.96R WCI  22
WAHOO          FAIR      31  19  61 W16       29.94R WCI  19
$$




USA.gov is the U.S. government's official web portal to all federal, state and local government web resources and services.